Weather History for Wadesboro, NC

Change the Weather History Date:

Saturday, October 13, 2012

  Actual Average (KCLT) Record (KCLT)
Temperature  
Mean Temperature 55 °F 61 °F  
Max Temperature 68 °F 73 °F 91 °F (1954)
Min Temperature 42 °F 50 °F 35 °F (1964)
Degree Days  
Heating Degree Days 10 5  
Month to date heating degree days 49  
Since 1 July heating degree days 72  
Cooling Degree Days 0 1  
Month to date cooling degree days 26  
Year to date cooling degree days 1501  
Growing Degree Days 5 (Base 50)    
Moisture  
Dew Point 44 °F    
Average Humidity 71    
Maximum Humidity 100    
Minimum Humidity 37    
Precipitation  
Precipitation 0.00 in 0.12 in 1.93 in (1893)
Month to date precipitation 1.53  
Year to date precipitation 33.37  
Snow  
Snow 0.00 in 0.00 in 0.00 in ()
Month to date snowfall 0.0  
Since 1 July snowfall 0.0  
Since 1 September snowfall 0.0  
Snow Depth -    
Sea Level Pressure  
Sea Level Pressure 30.39 in    
Wind  
Wind Speed 3 mph (NE)    
Max Wind Speed 8 mph    
Max Gust Speed -    
Visibility 9 miles    
Events Fog    
T = Trace of Precipitation, MM = Missing Value Source: NWS Daily Summary

Daily Weather History Graph

Daily Weather History Graph

Search for Another Location

Airport:

Trip Planner

Search our weather history database for the weather conditions in past years. The results will help you decide how hot, cold, wet, or windy it might be!

Date:

Astronomy

Oct. 13, 2012 Rise Set
Actual Time 7:24 AM EDT 6:47 PM EDT
Civil Twilight 6:59 AM EDT 7:12 PM EDT
Nautical Twilight 6:30 AM EDT 7:42 PM EDT
Astronomical Twilight 6:00 AM EDT 8:11 PM EDT
Moon 5:16 AM EDT (10/13) 5:27 PM EDT (10/13)
Length of Visible Light 12h 13m
Length of Day
11h 22m
Waning Crescent, 5% of the Moon is Illuminated
Oct 13
Waning Crescent
Oct 15
New
Oct 21
First Quarter
Oct 29
Full
Nov 6
Last Quarter

Hourly Weather History & Observations

Time (EDT) Temp. Windchill Dew Point Humidity Pressure Visibility Wind Dir Wind Speed Gust Speed Precip Events Conditions
1:55 AM 46.4 °F - 46.4 °F 100% 30.32 in 10.0 mi Calm Calm - N/A   Clear
2:15 AM 46.4 °F - 44.6 °F 93% 30.33 in 3.0 mi Calm Calm - N/A   Clear
2:35 AM 44.6 °F - 42.8 °F 93% 30.33 in 0.5 mi Calm Calm - N/A Fog Fog
2:55 AM 46.4 °F 45.2 °F 44.6 °F 93% 30.34 in 1.0 mi NNE 3.5 mph - N/A   Mist
3:15 AM 46.4 °F 44.3 °F 46.4 °F 100% 30.35 in 10.0 mi NNE 4.6 mph - N/A   Clear
3:35 AM 48.2 °F - 46.4 °F 93% 30.35 in 10.0 mi NNE 3.5 mph - N/A   Clear
3:55 AM 48.2 °F - 46.4 °F 93% 30.36 in 10.0 mi NNE 3.5 mph - N/A   Clear
4:15 AM 48.2 °F - 46.4 °F 93% 30.36 in 10.0 mi NE 3.5 mph - N/A   Clear
4:35 AM 48.2 °F - 46.4 °F 93% 30.37 in 10.0 mi North 3.5 mph - N/A   Clear
4:55 AM 46.4 °F 45.2 °F 44.6 °F 93% 30.38 in 10.0 mi North 3.5 mph - N/A   Clear
5:15 AM 46.4 °F 45.2 °F 44.6 °F 93% 30.38 in 10.0 mi North 3.5 mph - N/A   Clear
5:35 AM 46.4 °F - 44.6 °F 93% 30.39 in 10.0 mi Calm Calm - N/A   Clear
5:55 AM 44.6 °F 42.2 °F 42.8 °F 93% 30.40 in 10.0 mi North 4.6 mph - N/A   Clear
6:15 AM 44.6 °F 43.1 °F 42.8 °F 93% 30.40 in 10.0 mi North 3.5 mph - N/A   Clear
6:55 AM 44.6 °F 43.1 °F 42.8 °F 93% 30.42 in 10.0 mi North 3.5 mph - N/A   Clear
7:15 AM 42.8 °F 40.1 °F 41.0 °F 93% 30.42 in 10.0 mi North 4.6 mph - N/A   Clear
7:35 AM 42.8 °F - 41.0 °F 93% 30.43 in 10.0 mi Calm Calm - N/A   Clear
7:55 AM 44.6 °F 43.1 °F 41.0 °F 87% 30.44 in 10.0 mi North 3.5 mph - N/A   Clear
8:15 AM 44.6 °F 43.1 °F 42.8 °F 93% 30.45 in 10.0 mi NNE 3.5 mph - N/A   Clear
8:35 AM 46.4 °F 44.3 °F 42.8 °F 87% 30.45 in 10.0 mi North 4.6 mph - N/A   Clear
8:55 AM 48.2 °F - 42.8 °F 82% 30.46 in 10.0 mi NNE 4.6 mph - N/A   Clear
9:15 AM 50.0 °F - 42.8 °F 76% 30.46 in 10.0 mi NNE 5.8 mph - N/A   Clear
9:55 AM 51.8 °F - 41.0 °F 67% 30.46 in 10.0 mi NE 8.1 mph - N/A   Clear
10:35 AM 55.4 °F - 41.0 °F 58% 30.46 in 10.0 mi NE 5.8 mph - N/A   Clear
10:55 AM 59.0 °F - 41.0 °F 51% 30.47 in 7.0 mi ENE 6.9 mph - N/A   Clear
11:15 AM 59.0 °F - 41.0 °F 51% 30.46 in 7.0 mi ENE 4.6 mph - N/A   Clear
11:35 AM 60.8 °F - 41.0 °F 48% 30.45 in 10.0 mi ENE 6.9 mph - N/A   Clear
11:55 AM 60.8 °F - 41.0 °F 48% 30.45 in 7.0 mi NE 6.9 mph - N/A   Clear
12:15 PM 62.6 °F - 41.0 °F 45% 30.45 in 10.0 mi NE 3.5 mph - N/A   Clear
12:35 PM 62.6 °F - 41.0 °F 45% 30.44 in 10.0 mi NE 6.9 mph - N/A   Clear
12:55 PM 62.6 °F - 41.0 °F 45% 30.44 in 10.0 mi Calm Calm - N/A   Clear
1:35 PM 64.4 °F - 41.0 °F 42% 30.41 in 10.0 mi Calm Calm - N/A   Clear
1:55 PM 66.2 °F - 41.0 °F 40% 30.40 in 10.0 mi North 4.6 mph - N/A   Clear
2:15 PM 66.2 °F - 41.0 °F 40% 30.39 in 10.0 mi NNE 5.8 mph - N/A   Clear
2:35 PM 68.0 °F - 41.0 °F 37% 30.38 in 10.0 mi East 4.6 mph - N/A   Clear
2:55 PM 68.0 °F - 41.0 °F 37% 30.37 in 10.0 mi NE 3.5 mph - N/A   Clear
3:15 PM 68.0 °F - 42.8 °F 40% 30.36 in 10.0 mi East 8.1 mph - N/A   Clear
3:35 PM 68.0 °F - 42.8 °F 40% 30.36 in 10.0 mi NE 4.6 mph - N/A   Clear
4:15 PM 68.0 °F - 42.8 °F 40% 30.35 in 10.0 mi East 5.8 mph - N/A   Clear
4:35 PM 68.0 °F - 42.8 °F 40% 30.35 in 10.0 mi East 3.5 mph - N/A   Clear
4:55 PM 68.0 °F - 44.6 °F 43% 30.35 in 10.0 mi Calm Calm - N/A   Clear
5:15 PM 68.0 °F - 42.8 °F 40% 30.35 in 10.0 mi Calm Calm - N/A   Clear
5:35 PM 68.0 °F - 44.6 °F 43% 30.35 in 10.0 mi Calm Calm - N/A   Clear
5:55 PM 68.0 °F - 44.6 °F 43% 30.34 in 10.0 mi Calm Calm - N/A   Clear
6:15 PM 66.2 °F - 46.4 °F 49% 30.34 in 10.0 mi Calm Calm - N/A   Clear
6:55 PM 60.8 °F - 51.8 °F 72% 30.34 in 10.0 mi Calm Calm - N/A   Clear
7:15 PM 57.2 °F - 50.0 °F 77% 30.34 in 10.0 mi Calm Calm - N/A   Clear
7:35 PM 53.6 °F - 50.0 °F 88% 30.33 in 10.0 mi Calm Calm - N/A   Clear
8:35 PM 51.8 °F - 50.0 °F 94% 30.35 in 7.0 mi Calm Calm - N/A   Clear
8:55 PM 51.8 °F - 50.0 °F 94% 30.35 in 7.0 mi Calm Calm - N/A   Clear
10:15 PM 50.0 °F - 48.2 °F 94% 30.36 in 5.0 mi Calm Calm - N/A   Clear
10:35 PM 50.0 °F - 48.2 °F 94% 30.36 in 10.0 mi Calm Calm - N/A   Clear
10:55 PM 48.2 °F - 46.4 °F 93% 30.35 in 3.0 mi Calm Calm - N/A   Clear
11:15 PM 46.4 °F - 44.6 °F 93% 30.35 in 10.0 mi Calm Calm - N/A   Clear